Regional Weather Roundup
Issued by NWS

Home | Current Version | Previous Version | Text Only | Print | Product List | Glossary Off
Versions: 1 2 3 4 5 6 7 8 9 10 11 12 13 14 15 16 17 18 19 20 21 22 23 24 25 26 27 28 29 30 31 32 33 34 35 36 37 38 39 40 41 42 43 44 45 46 47 48 49 50

000
ASUS43 KLSX 192107
RWRMO

WEATHER SUMMARY FOR MISSOURI
NATIONAL WEATHER SERVICE SPRINGFIELD MO
400 PM CDT SAT AUG 19 2017

NOTE: "FAIR" INDICATES FEW OR NO CLOUDS BELOW 12,000 FEET WITH NO
       SIGNIFICANT WEATHER AND/OR OBSTRUCTIONS TO VISIBILITY.
       CURRENT SKY AND/OR WEATHER CONDITIONS ARE NOT AVAILABLE FOR
       CHILLICOTHE AND FARMINGTON.

MOZ001>031-035>038-043-044-053-054-192200-
...NORTHERN AND WESTERN MISSOURI...

CITY           SKY/WX    TMP DP  RH WIND       PRES   REMARKS
KANSAS CTY INT MOSUNNY   89  68  49 S5        29.94F HX  93
KANSAS C DTWN  SUNNY     94  61  33 CALM      29.92F HX  94
LEE`S SUMMIT   SUNNY     90  68  48 E6        29.95F HX  94
ST JOSEPH      SUNNY     90  69  50 S7        29.92F HX  94
CHILLICOTHE      N/A     93  56  28 VRB5      29.93F HX  91
KIRKSVILLE     SUNNY     91  51  25 W6        29.93F

$$
MOZ066>068-077>081-088>096-101>105-192200-
...SOUTHWEST MISSOURI...

CITY           SKY/WX    TMP DP  RH WIND       PRES   REMARKS
SPRINGFIELD    SUNNY     91  76  61 W6        29.97F HX 103
JOPLIN         SUNNY     93  75  55 SW3       29.94F HX 104
BRANSON        MOSUNNY   91  73  55 NW5       29.99F HX 100

$$
MOZ032>034-039>042-045>050-055>058-069>072-192200-
...CENTRAL MISSOURI...

CITY           SKY/WX    TMP DP  RH WIND       PRES   REMARKS
COLUMBIA       SUNNY     90  64  42 W9        29.95S HX  91
JEFFERSON CITY SUNNY     90  74  59 W5        29.92F HX  99
ROLLA          SUNNY     89  69  51 SW7       29.97F HX  93
SEDALIA        SUNNY     92  70  48 VRB3      29.96F HX  97
WHITEMAN AFB   SUNNY     89  65  44 N3        29.94F HX  91
WARRENSBURG    SUNNY     88  66  48 CALM      29.95S HX  90
OSAGE BEACH    SUNNY     89  73  59 VRB3      29.96F HX  97

$$
MOZ051-052-059>065-192200-
...EAST CENTRAL MISSOURI...

CITY           SKY/WX    TMP DP  RH WIND       PRES   REMARKS
ST LOUIS INTL  MOSUNNY   88  66  48 N8        29.93F HX  90
SPIRIT OF STL  MOSUNNY   91  70  49 SW7       29.91F HX  96
ST CHARLES     SUNNY     90  66  45 N6        29.92F HX  92

$$
MOZ072>076-082>087-097>100-106>115-192200-
...SOUTH CENTRAL AND SOUTHEAST MISSOURI...

CITY           SKY/WX    TMP DP  RH WIND       PRES   REMARKS
CAPE GIRARDEAU SUNNY     91  69  48 W6        29.92F HX  96
FARMINGTON     SUNNY     90  69  50 W6        29.96F HX  94
POPLAR BLUFF   MOSUNNY   89  73  59 CALM      29.92F HX  97
WEST PLAINS    SUNNY     94  65  38 W7        29.98F HX  96

$$


USA.gov is the U.S. government's official web portal to all federal, state and local government web resources and services.